This demonstration page uses our WeatherBlox Daily Observations layout. Learn more.

Left ArrowRight Arrow

Hourly Observations for February 5, 2017

Temp ( °F °C ) Dew Point ( °F °C ) Humidity (%) Winds ( mph kmh ) Pressure ( in mb ) Visibility ( mi km ) Precip ( " mm )
12:53 am 00:53 Cloudy 13 -10.6 10 -12.2 88 88 Calm 30.01 1016 10 16 0.00 0.00
1:53 am 01:53 Cloudy 13 -10.6 10 -12.2 88 88 ENE 5 7 29.98 1015 10 16 0.00 0.00
2:53 am 02:53 Cloudy 13 -10.6 11 -11.7 92 92 ENE 5 7 29.97 1015 9 14 0.00 0.00
3:53 am 03:53 Cloudy 13 -10.6 11 -11.7 92 92 NE 8 13 29.94 1014 10 16 0.00 0.00
4:53 am 04:53 Cloudy 13 -10.6 11 -11.7 92 92 E 6 9 29.92 1013 10 16 0.00 0.00
5:53 am 05:53 Cloudy 13 -10.6 11 -11.7 92 92 ENE 5 7 29.91 1013 10 16 0.00 0.00
6:13 am 06:13 Cloudy 13 -10.6 11 -11.7 92 92 NE 5 7 29.97 1015 10 16 0.00 0.00
6:53 am 06:53 Cloudy 13 -10.6 11 -11.7 92 92 ENE 5 7 29.90 1012 10 16 0.00 0.00
7:37 am 07:37 Cloudy 13 -10.6 11 -11.7 92 92 NE 5 7 29.94 1014 10 16 0.00 0.00
7:53 am 07:53 Cloudy 13 -10.6 11 -11.7 92 92 NNE 5 7 29.89 1012 10 16 0.00 0.00
8:53 am 08:53 Cloudy with Mist and Fog 14 -10 11 -11.7 88 88 Calm 29.90 1012 6 10 0.00 0.00
9:53 am 09:53 Cloudy with Mist and Fog 14 -10 11 -11.7 88 88 NE 6 9 29.88 1012 5 8 0.00 0.00
10:26 am 10:26 Cloudy 16 -9 10 -12 79 79 Calm 29.94 1014 7 11 0.00 0.00
10:53 am 10:53 Cloudy with Mist and Fog 15 -9.4 11 -11.7 84 84 NNW 3 6 29.90 1013 5 8 0.00 0.00
11:53 am 11:53 Cloudy with Mist and Fog 15 -9.4 11 -11.7 84 84 NW 7 11 29.90 1012 5 8 0.00 0.03
12:53 pm 12:53 Cloudy with Light Snow 15 -9.4 11 -11.7 84 84 NW 12 19 29.88 1012 3 4 0.00 0.03
12:57 pm 12:57 Cloudy with Light Snow 15 -9.4 11 -11.7 84 84 WNW 12 19 29.91 1013 3 5 0.00 0.03
1:53 pm 13:53 Cloudy with Light Snow 15 -9.4 9 -12.8 77 77 NW 12 19 29.87 1012 4 6 0.00 0.03
2:53 pm 14:53 Cloudy with Light Snow 13 -10.6 8 -13.3 81 81 NW 13 20 29.90 1012 5 8 0.00 0.03
3:53 pm 15:53 Cloudy with Light Snow 13 -10.6 7 -13.9 77 77 NW 13 20 29.91 1013 4 6 0.00 0.03
4:53 pm 16:53 Cloudy with Light Snow 11 -11.7 6 -14.4 81 81 NW 12 19 29.92 1013 5 8 0.00 0.03
5:17 pm 17:17 Cloudy with Light Snow 11 -11.7 7 -13.9 84 84 NNW 12 19 30.00 1016 2 3 0.00 0.03
5:30 pm 17:30 Cloudy with Mist and Fog 10 -12 7 -14 85 85 NNE 9 15 30.03 1017 5 8 0.00 0.00
5:53 pm 17:53 Cloudy 10 -12.2 5 -15 80 80 N 9 15 29.94 1014 10 16 0.00 0.03
6:35 pm 18:35 Cloudy with Light Snow 8 -13.3 4 -15.6 83 83 N 9 15 30.03 1017 8 13 0.00 0.03
6:53 pm 18:53 Cloudy 8 -13.3 3 -16.1 80 80 NNE 8 13 29.96 1015 10 16 0.00 0.03
7:18 pm 19:18 Cloudy 9 -13 3 -16 78 78 NNW 6 9 30.06 1018 10 16 0.00 0.00
7:53 pm 19:53 Cloudy 8 -13.3 3 -16.1 80 80 VRB 6 9 29.95 1014 10 16 0.00 0.00
8:53 pm 20:53 Cloudy with Light Snow 7 -13.9 3 -16.1 84 84 N 7 11 29.96 1015 3 5 0.00 0.03
9:09 pm 21:09 Cloudy with Light Snow 7 -13.9 3 -16.1 84 84 N 7 11 30.06 1018 2 3 0.00 0.03
9:24 pm 21:24 Cloudy with Light Snow 7 -14 3 -16 85 85 N 7 11 30.06 1018 4 6 0.00 0.00
9:53 pm 21:53 Cloudy 7 -13.9 3 -16.1 84 84 NNE 7 11 29.96 1014 8 13 0.01 0.25
10:36 pm 22:36 Cloudy 7 -14 1 -17 78 78 NE 7 11 30.03 1017 10 16 0.00 0.00
10:53 pm 22:53 Cloudy 7 -13.9 1 -17.2 76 76 NNE 6 9 29.96 1015 10 16 0.00 0.00
11:53 pm 23:53 Cloudy 6 -14.4 1 -17.2 79 79 NNE 8 13 29.96 1015 10 16 0.00 0.00

Powered by AerisWeather